www.pogodaiklimat.ru

Погода и климат >> Архив погоды >> Россия >> Камчатский край >> Большерецк


ПОГОДА в Большерецке

  • Прогноз погоды в Большерецке
  • Монитор погоды в Большерецке
  • Климат города

АРХИВ ПОГОДЫ в Большерецке

Время (UTC), дата Ветер
(напр.,м/с)
 
Видим.   Явления Облачность Т
(С)
Тd
(С)
f
(%)
Тe
(С)
Тes
(С)
Комфортность P
(гПа)
Po
(гПа)
Тmin
(С)
Tmax
(С)
R
(мм)
R24
(мм)
S
(см)
09 13.08 СЗ 5-10
{12}
20 км 10/10 300 м
[St]
+14.6 +13.7 94 +13 +13 1014.5 1010.9 +19.9
12 13.08 СЗ 4
{10}
20 км 8/8 600 м
[Sc]
+13.1 +12.7 97 +11 +11 1014.5 1010.8
15 13.08 СЗ 5 20 км 10/10 300 м
[St]
+13.6 +13.4 99 +12 +12 1013.9 1010.3
18 13.08 СЗ 5 20 км 10/10 300 м
[St]
+13.5 +13.1 97 +11 +11 1013.9 1010.3
21 13.08 С 5 10 км слабая морось 10/10 300 м
[St]
+14.4 +13.4 94 +13 +13 1014.5 1010.9 +13.0 0.0
00 14.08 СЗ 6 20 км {морось} 10/10 300 м
[St]
+15.3 +13.6 90 +14 +14 1014.4 1010.9
03 14.08 СЗ 5 20 км 10/8 600 м
[Sc Ac und]
+17.3 +13.6 79 +17 +17 1014.3 1010.7
06 14.08 СЗ 2 20 км 9/8 600 м
[Sc Ac trans]
+15.0 +13.1 88 +15 +15 1014.6 1011.1
09 14.08 СЗ 3 20 км в посл. час ливневой дождь 9/8 600 м
[Cb cap Ac trans]
+13.6 +12.9 96 +12 +12 1015.3 1011.7 +17.4 0.1
12 14.08 СЗ 3 20 км {ливн. осадки} 10/10 600 м
[Cb cap]
+13.2 +12.8 97 +12 +12 1016.0 1012.4
15 14.08 СЗ 2 20 км 9/9 600 м
[Cb calv]
+12.8 +12.4 97 +12 +12 1016.3 1012.7
18 14.08 СЗ 2 20 км 9/9 600 м
[Cb calv]
+11.8 +11.5 98 +11 +11 1016.5 1012.9
21 14.08 СВ 1 20 км 9/8 600 м
[Cb calv Ac trans]
+14.1 +13.4 96 +14 +15 1017.6 1014.0 +11.8 0.4
00 15.08 Ю 1 500 м слабая морось {туман} туман ?/? +15.0 +14.5 97 +15 +15 1018.1 1014.5
03 15.08 З 2 20 км {морось, туман} 10/10 300 м
[St]
+16.3 +14.8 91 +16 +16 1018.3 1014.7
06 15.08 С 1 10 км слабая морось {туман} 10/10 300 м
[St]
+16.2 +15.1 93 +17 +17 1018.3 1014.7
09 15.08 СЗ 1 20 км {ливн. осадки, морось} 10/10 600 м
[Cb cap]
+14.8 +14.5 98 +15 +15 1019.1 1015.5 +16.8 1
12 15.08 Ю 2 20 км {ливн. осадки, морось} 10/10 600 м
[Cb cap]
+13.6 +11.8 89 +13 +13 1019.9 1016.3
15 15.08 Ю 1 20 км 10/10 600 м
[Cb cap]
+13.1 +10.5 84 +13 +13 1020.3 1016.7
18 15.08 В 1 50 км 10/6 600 м
[Sc Ac und]
+12.1 +10.4 89 +12 +12 1020.5 1016.8
21 15.08 З 1 50 км 10/8 600 м
[Sc Ac und]
+13.6 +11.4 87 +14 +14 1021.1 1017.5 +11.5
00 16.08 Ю 4 50 км 9/6 600 м
[Cu Sc Ac trans]
+17.0 +10.8 67 +17 +18 1021.6 1018.0
03 16.08 СЗ 3 50 км 8/8 600 м
[Cu Sc]
+17.8 +12.0 69 +18 +20 1021.2 1017.6
06 16.08 СЗ 3 50 км 8/5 600 м
[Cu Sc Ci fib]
+17.1 +11.9 71 +17 +18 1021.1 1017.5
09 16.08 С 3 50 км 8/6 600 м
[Sc Ci fib]
+13.5 +11.6 88 +12 +12 1021.3 1017.6 +18.9
12 16.08 З 2 20 км 9/9 600 м
[Sc]
+13.0 +11.9 93 +12 +12 1021.9 1018.3
15 16.08 В 1 н/о н/о +13.4 +12.9 97 +13 +13 1021.7 1018.1
18 16.08 штиль 0 10 км слабая морось 10/10 300 м
[St]
+13.1 +12.4 96 +13 +13 1021.5 1017.9
21 16.08 Ю 2 20 км {морось} 10/10 600 м
[Sc]
+14.1 +11.9 87 +14 +14 1021.2 1017.6 +12.7 0.0
00 17.08 ЮЗ 2 20 км {морось} 10/10 600 м
[Sc]
+14.1 +11.8 86 +14 +14 1020.7 1017.1
03 17.08 З 3 20 км 10/10 600 м
[Sc]
+15.0 +12.8 87 +14 +14 1019.8 1016.2
06 17.08 СЗ 4 20 км 10/10 600 м
[Sc]
+15.4 +13.4 88 +14 +14 1018.8 1015.2
09 17.08 СЗ 4 20 км 10/10 600 м
[Sc]
+13.9 +12.7 92 +12 +12 1018.5 1014.9 +15.7
12 17.08 СЗ 3 20 км 10/10 600 м
[Sc]
+13.5 +12.5 94 +12 +12 1017.9 1014.3
15 17.08 СЗ 2 20 км 4/4 600 м
[Sc]
+11.5 +11.1 97 +10 +10 1017.2 1013.6
18 17.08 С 3 20 км 10/10 600 м
[Sc]
+12.4 +12.1 98 +11 +11 1016.7 1013.1
21 17.08 С 4 20 км 9/9 600 м
[Sc]
+13.5 +12.8 96 +12 +12 1016.6 1013.0 +11.2
00 18.08 СЗ 4 20 км 8/6 600 м
[Sc Ac trans]
+17.0 +13.6 80 +17 +19 1016.2 1012.6
03 18.08 СЗ 7-12
{12}
20 км 9/4 600 м
[Sc Ac trans]
+17.3 +12.8 75 +16 +17 1015.5 1012.0
06 18.08 СЗ 7-10
{12}
20 км 8/4 600 м
[Sc Ac trans]
+15.4 +12.3 82 +14 +14 1015.3 1011.7
09 18.08 СЗ 5
{12}
20 км 8/6 600 м
[Sc Ac trans]
+12.8 +11.4 91 +11 +11 1015.7 1012.1 +18.5
12 18.08 СЗ 4 20 км 8/8 600 м
[Sc]
+12.3 +11.0 92 +10 +10 1016.1 1012.5
15 18.08 СЗ 4 20 км 4/4 600 м
[Sc]
+9.8 +9.3 97 +7 +7 1015.8 1012.1
18 18.08 СЗ 2 20 км 8/8 600 м
[Sc]
+10.0 +9.7 98 +8 +8 1015.6 1011.9
21 18.08 СЗ 4 20 км 9/9 600 м
[Sc]
+13.2 +11.7 91 +11 +12 1015.8 1012.2 +9.0
00 19.08 СЗ 6 20 км 9/9 600 м
[Sc]
+15.0 +11.0 77 +13 +14 1015.5 1011.9
03 19.08 СЗ 5-10
{11}
50 км 9/8 600 м
[Sc Ac trans]
+16.6 +11.8 73 +16 +17 1014.3 1010.8
06 19.08 СЗ 6-10
{11}
50 км 10/10 600 м
[Sc]
+14.5 +11.5 82 +13 +13 1014.1 1010.5
09 19.08 СЗ 4
{10}
50 км 10/10 600 м
[Sc]
+12.9 +11.4 91 +11 +11 1014.0 1010.4 +17.4
12 19.08 СЗ 4 20 км 10/10 600 м
[Sc]
+12.3 +10.2 87 +10 +10 1014.2 1010.6
15 19.08 СЗ 3 20 км 10/10 600 м
[Sc]
+11.8 +10.9 94 +10 +10 1013.8 1010.2
18 19.08 С 2 н/о н/о +11.9 +11.1 95 +11 +11 1014.0 1010.4
21 19.08 С 4 20 км 10/10 600 м
[Sc]
+12.9 +10.9 88 +11 +11 1014.1 1010.5 +11.6
00 20.08 С 3 20 км 10/10 600 м
[Sc]
+15.3 +11.5 78 +15 +15 1014.3 1010.7
03 20.08 СЗ 4 20 км 10/10 600 м
[Sc]
+16.6 +11.7 73 +16 +16 1014.1 1010.5
06 20.08 СЗ 4 50 км 6/3 600 м
[Sc Ci fib]
+17.2 +11.9 71 +17 +18 1013.5 1009.9

 

Местоположение метеостанции Большерецк (Камчатский край, Россия): широта 52.83 долгота 156.30 высота над уровнем моря 30 м.

В архиве по умолчанию представлена погода в Большерецке за последнюю неделю. Архивные данные за месяц целиком и за предыдущие месяцы, начиная с января 2011 года, Вы можете получить, выбрав интересующий диапазон дат из раскрывающегося списка и нажав кнопку "Ввод!".

Внимание! Время в таблицах - всемирное. Для получения местного времени необходимо прибавить поправку, которая в Большерецке равна 12 ч.

Смотрите также архив погоды в соседних городах и на ближайших метеорологических станциях:

Погода в Начиках (Камчатский край, Россия) (99 км)
Погода в Сосновке (Камчатский край, Россия) (137 км)
Погода в Петропавловск-Камч. 2 (Камчатский край, Россия) (150 км)
Погода в Озерной (Камчатский край, Россия) (150 км)
Погода в Петропавловск-Камчатском (Камчатский край, Россия) (155 км)
Погода в Водопадной (Камчатский край, Россия) (161 км)
Погода в Петропавловском Маяке (Камчатский край, Россия) (161 км)
Погода в Соболево (Камчатский край, Россия) (166 км)
Погода в Пущино (Камчатский край, Россия) (188 км)
Погода на Мысе Лопатка (Камчатский край, Россия) (219 км)

Пояснения к столбцам:

Ветер - указаны скорость ветра в м/с - средняя за 10 мин, порывы в срок и между сроками (в фигурных скобках) и направление, откуда дует ветер: С - северный, СВ - северо-восточный, В - восточный, ЮВ - юго-восточный, Ю - южный, ЮЗ - юго-западный, З - западный, СЗ - северо-западный.
Видимость - горизонтальная дальность видимости в метрах или километрах. При видимости от 1 до 10 км при отсутствии осадков обычно наблюдается дымка, при ухудшении видимости до 1 км и менее - туман. В сухую погоду видимость может ухудшаться дымом, пылью или мглою.
Явления - указаны атмосферные явления, наблюдавшиеся в срок или в последний час перед сроком; фигурными скобками обозначены явления, наблюдавшиеся между сроками (за 1-3 часа до срока); квадратными скобками обозначены град или гололедные отложения с указанием их диаметра в мм.
Облачность - указаны через наклонную черту общая и нижняя облачность в баллах и высота нижней границы облаков в метрах; квадратными скобками обозначены формы облаков: Ci - перистые, Cs - перисто-слоистые, Cc - перисто-кучевые, Ac - высококучевые, As - высокослоистые, Sc - слоисто-кучевые, Ns - слоисто-дождевые, Cu - кучевые, Cb - кучево-дождевые. Подробнее классификацию облаков см. в Атласе облаков (PDF).
T - Температура воздуха - температура, измеренная на высоте 2 м над землей.
Td - Температура точки росы - температура, при понижении до которой содержащийся в воздухе водяной пар достигнет насыщения.
f - Относительная влажность воздуха - влажноcть воздуха, измеренная на высоте 2 м над землей.
Te - Эффективная температура - температура, которую ощущает одетый по сезону человек в тени. Характеристика душности погоды. При расчете учитывается влияние влажности воздуха и скорости ветра на теплоощущения человека.
Tes - Эффективная температура на солнце - температура, которую ощущает человек, с поправкой на солнечный нагрев. Характеристика знойности погоды. Зависит от высоты солнца над горизонтом, облачности и скорости ветра. Ночью, в пасмурную погоду, а также при ветре 12 м/с и более поправка равна нулю.
P - Атмосферное давление - приведенное к уровню моря атмосферное давление.
Po - Атмосферное давление - измеренное на уровне метеостанции атмосферное давление.
Tmin - Минимальная температура - минимум температуры воздуха на высоте 2 м над землей.
Tmax - Максимальная температура - максимум температуры воздуха на высоте 2 м над землей.
R - Количество осадков - Количество выпавших осадков за период времени, мм. При наведении курсора мыши на число - период времени, за который выпало указанное количество осадков.
R24 - Количество осадков - Количество выпавших осадков за 24 часа, мм.
S - Снежный покров - Высота снежного покрова, см. При наведении курсора мыши на число - состояние снежного покрова и степень покрытия местности в баллах.